DateTimeUTC,F1_A11,F1_S11,BsB_S11,BsG_S11,BsR_S11,BbsB_S11,BbsG_S11,BbsR_S11,BaB_A11,BaG_A11,BaR_A11,Tu_S11,T_S11,Uu_S11,U_S11,P_S11,T1_A11
2021-08-01T12:00:00Z,00000200,20000000,,,,,,,-000.34,-000.16,-000.15,18.9,25.4,09.1,06.1,0677.8,31.0
2021-08-01T12:01:00Z,00000200,20000000,,,,,,,-000.11,0000.21,-000.06,18.9,25.4,09.1,06.1,0677.8,31.0
2021-08-01T12:02:00Z,00000200,20000000,,,,,,,-000.28,-000.39,-000.24,18.9,25.4,09.1,06.1,0677.8,31.0
2021-08-01T12:03:00Z,00000200,60000000,,,,,,,0005.47,0004.79,0003.88,18.9,25.4,09.1,06.1,0677.8,31.0
2021-08-01T12:04:00Z,00000200,40000000,0002.89,0001.96,0001.35,0000.70,0000.22,0000.12,0001.56,0001.19,0001.00,19.0,25.3,09.0,06.2,0678.7,31.0
2021-08-01T12:05:00Z,00000200,00000000,0002.80,0002.41,0001.31,0000.69,0000.49,-000.07,0005.87,0005.49,0004.23,19.1,25.3,09.2,06.3,0678.8,31.0
2021-08-01T12:06:00Z,00000200,00000000,0002.94,0002.57,0001.56,0000.42,0000.26,0000.48,0005.52,0005.02,0003.50,19.1,25.3,09.4,06.4,0678.8,31.0
2021-08-01T12:07:00Z,00000200,00000000,0002.48,0002.49,0001.14,0000.68,0000.44,0000.14,0006.50,0005.72,0004.34,19.1,25.2,09.5,06.5,0678.8,31.0
2021-08-01T12:08:00Z,00000200,00000000,0002.91,0002.16,0001.37,0000.71,-000.02,0000.32,0010.22,0008.96,0007.06,19.1,25.2,09.6,06.6,0678.8,31.0
2021-08-01T12:09:00Z,00000200,00000000,0003.04,0002.12,0001.48,0000.80,0000.29,0000.41,0002.41,0002.59,0001.65,19.1,25.2,09.5,06.5,0678.8,31.0
2021-08-01T12:10:00Z,00000200,00000000,0002.44,0002.10,0001.55,0000.73,0000.57,0000.75,0003.75,0003.29,0002.42,19.1,25.2,09.5,06.6,0678.8,31.0
2021-08-01T12:11:00Z,00000200,00000000,0003.33,0002.13,0001.44,0000.56,0000.28,0000.31,0001.20,0000.86,0000.72,19.1,25.2,09.7,06.7,0678.7,31.0
2021-08-01T12:12:00Z,00000200,00000000,0002.96,0002.46,0001.39,0000.16,0000.38,0000.47,0000.70,0000.66,0000.53,19.2,25.3,09.5,06.6,0678.7,31.0
2021-08-01T12:13:00Z,00000200,00000000,0002.23,0001.92,0001.16,-000.30,0000.26,0000.45,0000.64,0000.46,0000.43,19.2,25.2,09.4,06.5,0678.7,31.0
2021-08-01T12:14:00Z,00000200,00000000,0002.85,0002.12,0001.11,0000.30,0000.34,0000.46,0000.37,0000.61,0000.41,19.2,25.3,09.4,06.5,0678.7,31.0
2021-08-01T12:15:00Z,00000200,00000000,0002.19,0001.95,0000.80,0000.49,0000.45,0000.32,0001.36,0000.87,0000.80,19.2,25.3,09.3,06.4,0678.7,31.0
2021-08-01T12:16:00Z,00000200,00000000,0002.41,0002.15,0001.14,0000.41,0000.27,0000.52,0006.61,0006.37,0004.52,19.2,25.3,09.4,06.5,0678.8,31.0
2021-08-01T12:17:00Z,00000200,00000000,0002.92,0002.02,0000.93,0000.03,0000.21,0000.09,0002.96,0002.54,0002.12,19.2,25.3,09.4,06.5,0678.8,31.0
2021-08-01T12:18:00Z,00000200,00000000,0002.87,0002.09,0001.20,0000.65,0000.17,0000.31,0001.84,0001.81,0001.27,19.2,25.3,09.6,06.6,0678.8,31.0
2021-08-01T12:19:00Z,00000200,00000000,0003.08,0002.07,0001.17,0000.59,0000.61,0000.49,0010.24,0009.27,0006.74,19.2,25.3,09.9,06.8,0678.8,31.0
2021-08-01T12:20:00Z,00000200,00000000,0002.58,0002.28,0001.39,0000.33,0000.32,0000.19,0002.72,0002.51,0002.03,19.2,25.3,09.9,06.8,0678.8,31.0
2021-08-01T12:21:00Z,00000200,00000000,0002.49,0001.90,0001.28,0000.13,0000.27,0000.27,0002.40,0001.93,0001.79,19.2,25.3,09.7,06.7,0678.8,31.0
2021-08-01T12:22:00Z,00000200,00000000,0002.51,0002.22,0000.93,0000.71,0000.27,0000.12,0004.42,0003.99,0003.01,19.2,25.3,09.7,06.7,0678.8,31.0
2021-08-01T12:23:00Z,00000200,00000000,0002.13,0001.75,0000.99,-000.15,0000.08,0000.05,0001.26,0001.36,0000.83,19.3,25.3,09.7,06.8,0678.8,31.0
2021-08-01T12:24:00Z,00000200,00000000,0002.74,0001.64,0001.21,0000.56,0000.08,0000.34,0002.40,0002.00,0001.29,19.3,25.3,09.7,06.7,0678.7,31.0
2021-08-01T12:25:00Z,00000200,00000000,0002.04,0001.41,0000.93,0000.29,0000.42,0000.21,0000.13,0000.02,0000.14,19.3,25.3,09.4,06.5,0678.7,31.0
2021-08-01T12:26:00Z,00000200,00000000,0001.82,0001.69,0001.04,0000.01,0000.53,0000.02,0000.34,0000.47,0000.15,19.3,25.3,09.3,06.4,0678.7,31.0
2021-08-01T12:27:00Z,00000200,00000000,0002.01,0001.69,0001.00,0000.54,0000.38,0000.07,0000.58,0000.58,0000.34,19.3,25.3,09.2,06.4,0678.7,31.0
2021-08-01T12:28:00Z,00000200,00000000,0001.86,0001.52,0001.08,0000.25,0000.26,0000.32,0000.54,0000.25,0000.52,19.3,25.3,09.2,06.4,0678.7,31.0
2021-08-01T12:29:00Z,00000200,00000000,0001.36,0001.52,0000.88,0000.70,0000.02,0000.61,0000.57,0000.32,-000.00,19.3,25.3,09.2,06.4,0678.7,31.0
2021-08-01T12:30:00Z,00000200,00000000,0001.91,0001.35,0000.52,-000.03,-000.06,0000.05,0000.82,0000.88,0000.94,19.3,25.3,09.1,06.3,0678.8,31.0
2021-08-01T12:31:00Z,00000200,00000000,0002.46,0001.53,0001.29,0000.09,0000.04,0000.46,0000.46,0000.45,0000.35,19.3,25.3,09.4,06.5,0678.8,31.0
2021-08-01T12:32:00Z,00000200,00000000,0002.61,0001.66,0001.40,-000.15,0000.25,0000.11,0000.69,0000.50,0000.44,19.3,25.3,09.4,06.5,0678.8,31.0
2021-08-01T12:33:00Z,00000200,00000000,0002.09,0001.56,0000.71,0000.16,0000.49,0000.19,0000.12,0000.31,0000.13,19.4,25.3,09.2,06.4,0678.7,31.0
2021-08-01T12:34:00Z,00000200,00000000,0002.16,0001.78,0000.88,0000.65,0000.21,-000.01,0001.10,0001.32,0000.95,19.4,25.4,09.2,06.4,0678.8,31.0
2021-08-01T12:35:00Z,00000200,00000000,0002.40,0001.50,0001.16,0000.57,0000.23,0000.40,0003.48,0002.83,0002.21,19.3,25.4,09.1,06.3,0678.8,31.0
2021-08-01T12:36:00Z,00000200,00000000,0002.80,0002.06,0001.22,0000.37,0000.19,0000.40,0002.11,0001.97,0001.28,19.4,25.4,09.2,06.4,0678.8,31.0
2021-08-01T12:37:00Z,00000200,00000000,0002.54,0002.30,0000.90,0000.37,0000.21,0000.43,0001.10,0001.09,0000.90,19.4,25.4,09.3,06.4,0678.7,31.0
2021-08-01T12:38:00Z,00000200,00000000,0002.26,0002.28,0001.15,0000.51,0000.32,0000.30,0000.87,0000.73,0000.74,19.4,25.4,09.2,06.4,0678.7,31.1
2021-08-01T12:39:00Z,00000200,00000000,0002.37,0002.41,0001.08,0000.39,0000.48,0000.14,0001.06,0000.91,0000.73,19.4,25.4,09.2,06.4,0678.8,31.0
2021-08-01T12:40:00Z,00000200,00000000,0003.15,0002.12,0001.27,0000.28,0000.11,0000.52,0001.04,0000.74,0000.34,19.4,25.4,09.4,06.5,0678.7,31.0
2021-08-01T12:41:00Z,00000200,00000000,0002.42,0001.83,0001.16,0000.59,0000.29,-000.14,0000.59,0000.79,0000.70,19.4,25.4,09.3,06.4,0678.7,31.0
2021-08-01T12:42:00Z,00000200,00000000,0003.12,0002.21,0001.31,-000.14,0000.17,0000.36,0000.39,0000.18,0000.41,19.4,25.4,09.4,06.5,0678.8,31.0
2021-08-01T12:43:00Z,00000200,00000000,0002.23,0001.60,0000.88,0000.08,0000.05,0000.36,0001.09,0001.15,0000.19,19.4,25.4,09.4,06.5,0678.7,31.0
2021-08-01T12:44:00Z,00000200,00000000,0002.89,0001.77,0001.21,0000.15,0000.44,0000.46,0000.17,0000.32,0000.48,19.4,25.4,09.3,06.5,0678.6,31.0
2021-08-01T12:45:00Z,00000200,00000000,0002.43,0002.21,0001.64,0000.31,0000.09,0000.50,0000.93,0000.61,0000.64,19.4,25.4,09.1,06.3,0678.7,31.1
2021-08-01T12:46:00Z,00000200,00000000,0002.79,0002.04,0001.20,0000.54,0000.21,0000.10,0000.68,0000.44,0000.34,19.4,25.4,09.3,06.5,0678.6,31.0
2021-08-01T12:47:00Z,00000200,00000000,0002.31,0002.49,0001.26,0000.70,0000.41,-000.04,0000.94,0000.82,0000.74,19.4,25.4,09.2,06.4,0678.6,31.0
2021-08-01T12:48:00Z,00000200,00000000,0002.89,0002.08,0001.31,-000.03,0000.29,0000.27,0001.04,0001.28,0000.93,19.4,25.4,09.3,06.5,0678.7,31.0
2021-08-01T12:49:00Z,00000200,00000000,0002.90,0002.28,0001.49,0000.56,0000.51,0000.59,0000.71,0000.84,0000.21,19.4,25.4,09.4,06.5,0678.6,31.0
2021-08-01T12:50:00Z,00000200,00000000,0002.83,0002.01,0001.14,0000.20,0000.23,0000.37,0000.61,0000.30,0000.64,19.5,25.4,09.3,06.4,0678.6,31.0
2021-08-01T12:51:00Z,00000200,00000000,0002.01,0001.67,0001.02,0000.57,0000.14,0000.07,0000.67,0000.60,0000.31,19.5,25.4,09.4,06.5,0678.6,31.0
2021-08-01T12:52:00Z,00000200,00000000,0003.18,0001.90,0001.43,0000.44,-000.06,0000.46,0001.31,0001.03,0000.95,19.4,25.4,09.6,06.7,0678.7,31.1
2021-08-01T12:53:00Z,00000200,00000000,0002.20,0001.89,0000.92,0000.41,0000.22,0000.25,0000.34,0000.41,0000.41,19.5,25.4,09.8,06.8,0678.6,31.0
2021-08-01T12:54:00Z,00000200,00000000,0002.46,0002.34,0001.18,-000.13,-000.05,0000.47,0000.52,0000.42,0000.03,19.5,25.5,09.5,06.6,0678.5,31.0
2021-08-01T12:55:00Z,00000200,00000000,0003.05,0001.83,0001.50,0000.52,0000.22,0000.37,0000.23,0000.63,0000.48,19.5,25.5,09.5,06.6,0678.6,31.0
2021-08-01T12:56:00Z,00000200,00000000,0002.09,0002.26,0001.27,0000.01,0000.10,0000.50,0000.40,0000.35,0000.26,19.5,25.5,09.4,06.5,0678.6,31.1
2021-08-01T12:57:00Z,00000200,40000000,,,,,,,0000.59,0000.41,0000.42,19.5,25.5,09.8,06.8,0678.7,31.0
2021-08-01T12:58:00Z,00000200,60000000,,,,,,,-000.07,-000.56,-000.40,19.3,25.6,09.3,06.3,0677.7,31.0
2021-08-01T12:59:00Z,00000200,20000000,,,,,,,0000.15,0000.22,0000.18,19.3,25.7,09.0,06.1,0677.5,31.0
